#timestamp,LO_Frequency,Hit,StdDev 
1619499615.5,286046998.1,N
1619499635.3,286046999.4,N
1619499655.1,286046998.8,N
1619499675.9,286047001.0,N
1619499695.7,286047000.1,N
1619499715.6,286047002.4,N
1619499735.4,286047002.3,N
1619499755.2,286047004.2,N
1619499775.1,286047003.6,N
1619499776.0,286047003.6,N
1619499795.8,286047004.3,N
1619499815.6,286047002.3,N
1619499835.5,286047001.6,N
1619499855.3,286047002.3,N
1619499875.2,286047002.2,N
1619499895.9,286047000.2,N
1619499915.7,286047000.4,N
1619499935.6,286046999.0,N
1619499955.4,286046998.9,N
1619499975.2,286046996.8,N
1619499995.1,286047000.3,N
1619499996.0,286047000.3,N
1619500015.8,286046998.9,N
1619500035.7,286046999.5,N
1619500055.5,286046997.4,N
1619500075.3,286046994.9,N
1619500095.2,286046997.8,N
1619500115.0,286046997.2,N
1619500115.9,286046997.2,N
1619500135.7,286046998.1,N
1619500155.6,286047001.2,N
1619500175.4,286047001.5,N
1619500195.3,286047002.8,N
1619500215.1,286047002.6,N
1619500216.0,286047002.6,N
1619500235.8,286047002.0,N
1619500255.7,286047002.7,N
1619500275.5,286047000.6,N
1619500295.4,286047001.1,N
1619500315.2,286047002.4,N
1619500335.0,286047000.6,N
1619500335.9,286047000.6,N
1619500355.8,286047000.9,N
1619500375.6,286047002.7,N
1619500395.5,286047002.5,N
1619500415.3,286047000.4,N
1619500435.1,286046998.4,N
1619500455.9,286046998.3,N
1619500475.7,286046998.6,N
1619500495.5,286046998.6,N
1619500515.9,286046999.6,N
1619500535.7,286046996.8,N
1619500555.5,286046995.3,N
1619500575.4,286046997.4,N
1619500595.2,286047000.8,N
1619500615.0,286046998.5,N
1619500615.9,286046998.5,N
1619500635.8,286047001.2,N
1619500655.6,286046996.9,N
1619500675.5,286046997.4,N
1619500695.3,286046998.8,N
1619500715.1,286046998.2,N
1619500735.9,286046998.3,N
1619500755.7,286047000.8,N
1619500775.5,286046999.1,N
1619500795.4,286046998.5,N
1619500815.2,286046996.9,N
1619500835.1,286046997.8,N
1619500836.0,286046997.8,N
1619500855.8,286046999.6,N
1619500875.6,286046999.3,N
1619500895.5,286046999.5,N
1619500915.3,286046994.9,Y
1619500935.1,286046997.3,P
1619500955.9,286046996.8,P
1619500975.7,286046996.7,P
1619500995.6,286046996.7,Y
1619501015.4,286046999.9,P
1619501035.2,286047000.5,N
1619501055.1,286046998.1,N
1619501056.0,286046998.1,N
1619501075.8,286046998.3,N
1619501095.7,286046998.4,N
1619501115.5,286047000.7,N
1619501135.3,286047001.0,N
1619501155.2,286046999.0,N
1619501175.0,286047001.8,N
1619501175.9,286047001.8,N
1619501195.8,286047004.0,N
1619501215.6,286047002.7,N
1619501235.4,286047000.2,N
1619501255.3,286047004.3,N
1619501275.1,286047001.4,N
1619501295.9,286047003.6,N
1619501315.7,286047001.8,N
1619501335.5,286047001.9,N
1619501355.4,286047004.1,N
1619501375.2,286046999.8,N
1619501395.0,286047004.1,N
1619501395.9,286047004.1,N
1619501415.8,286047004.3,N
1619501435.6,286047004.2,N
1619501455.5,286047002.1,N
1619501475.3,286047000.0,N
1619501495.1,286047000.9,N
1619501515.9,286047002.7,N
1619501535.7,286046999.9,N
1619501555.6,286047000.9,N
1619501575.4,286047002.5,N
1619501595.2,286047001.5,N
1619501615.1,286047004.1,N
1619501616.0,286047004.1,N
1619501635.8,286047003.8,N
1619501655.7,286047003.7,N
1619501675.5,286047002.5,N
1619501695.3,286047002.4,N
1619501715.2,286047002.1,N
1619501735.0,286047001.9,N
1619501735.9,286047001.9,N
1619501755.8,286047001.5,N
1619501775.6,286047001.3,N
1619501795.4,286047001.6,N
1619501815.3,286047006.0,Y
1619501835.1,286047001.9,P
1619501855.8,286047001.1,P
1619501875.7,286046998.1,P
1619501895.5,286046999.1,N
1619501915.4,286047001.2,N
1619501935.2,286047002.3,N
1619501955.0,286047002.5,N
1619501955.9,286047002.5,N
1619501975.8,286046999.9,N
1619501995.6,286046999.4,N
1619502015.5,286047002.2,N
1619502035.3,286047000.0,N
1619502055.1,286047000.5,N
1619502075.9,286047000.4,N
1619502095.7,286046999.9,N
1619502115.6,286047000.4,N
1619502135.4,286047001.2,N
1619502155.2,286047001.0,N
1619502175.1,286047000.3,N
1619502176.0,286047000.3,N
1619502195.8,286046999.3,N
1619502215.7,286047000.4,N
1619502235.5,286047004.0,Y
1619502255.3,286047001.5,P
1619502275.2,286047000.8,N
1619502295.0,286046999.1,N
1619502295.9,286046999.1,N
1619502315.8,286046996.6,Y
1619502335.6,286046998.4,P
1619502355.4,286047001.0,N
1619502375.3,286046999.2,N
1619502395.1,286046999.1,N
1619502415.9,286046997.0,Y
1619502435.7,286046996.5,P
1619502455.5,286046997.7,N
1619502475.4,286046995.6,P
1619502495.2,286046995.5,Y
1619502515.1,286046996.5,P
1619502516.0,286046996.5,P
1619502535.8,286046999.5,N
1619502555.6,286046996.9,N
1619502575.5,286046998.2,N
1619502595.3,286046998.3,N
1619502615.2,286046999.6,N
1619502635.9,286046996.7,N
1619502655.7,286046999.4,N
1619502675.6,286046994.9,Y
1619502695.4,286046996.5,P
1619502715.2,286046999.4,N
1619502735.1,286047001.1,N
1619502736.0,286047001.1,N
1619502755.8,286046998.7,N
1619502775.7,286046998.8,N
1619502795.5,286047000.8,N
1619502815.3,286046999.9,N
1619502835.2,286046999.7,N
1619502855.0,286047000.5,N
1619502855.9,286047000.5,N
1619502875.8,286047002.0,N
1619502895.6,286047000.9,N
1619502915.4,286046996.5,N
1619502935.3,286047001.2,N
1619502955.1,286047002.3,N
1619502975.9,286047004.4,N
1619502995.7,286047003.4,N
1619503015.5,286047001.5,N
1619503035.4,286047002.5,N
1619503055.2,286047002.1,N
1619503075.0,286047002.1,N
1619503075.9,286047002.1,N
1619503095.8,286047001.8,N
1619503115.6,286047001.9,N
1619503135.5,286047002.4,N
1619503155.3,286047000.0,N
1619503175.1,286046999.8,N
1619503195.9,286047002.1,N
